Location: Mexico
(19.4000°N, 99.1500°W)
Time: 16:26:58
(UTC-06:00)

ISS - Pass Details

Date: 08 August 2020
Orbit: 418 x 420 km, 51.6° (Epoch: 08 August)

Event Time Altitude Azimuth Distance (km) Brightness Sun altitude
Rises 21:06:47 0° 291° (WNW) 2,354 1.3 -26.5°
Reaches altitude 10° 21:10:20 10° 251° (WSW) 1,489 -0.5 -27.2°
Enters shadow 21:10:44 11° 244° (WSW) 1,457 -0.7 -27.3°
